WAXY62 EFHK-EFOU

Flight info

Callsign WAXY62
Flight time N/A
Altitude 25000
Route TEVRU Y75 SUVIB
Aircraft C700/M-SBDGHM1RWXY/LB2

Departure

Time 2026-05-07 18:40
Airport Helsinki Vantaa Airport (EFHK)

Arrival

Time N/A
Airport Oulu Airport (EFOU)
Time Latitude Longitude Altitude Speed Heading
2026-05-07 18:15 60.32002 24.96845 157 ft 0 kts 193°
2026-05-07 18:24 60.32017 24.96853 157 ft 3 kts 193°
2026-05-07 18:24 60.32025 24.96862 157 ft 0 kts 225°
2026-05-07 18:25 60.32028 24.96867 157 ft 0 kts 216°
2026-05-07 18:25 60.32035 24.96878 157 ft 3 kts 216°
2026-05-07 18:25 60.32042 24.96890 157 ft 1 kts 156°
2026-05-07 18:25 60.32049 24.96865 157 ft 3 kts 113°
2026-05-07 18:26 60.32057 24.96828 158 ft 3 kts 106°
2026-05-07 18:26 60.32056 24.96789 158 ft 3 kts 76°
2026-05-07 18:26 60.32054 24.96774 158 ft 0 kts 43°
2026-05-07 18:31 60.32065 24.96795 158 ft 5 kts 46°
2026-05-07 18:31 60.32101 24.96859 157 ft 8 kts 24°
2026-05-07 18:31 60.32164 24.96833 158 ft 10 kts 322°
2026-05-07 18:32 60.32229 24.96750 158 ft 12 kts 333°
2026-05-07 18:32 60.32305 24.96663 158 ft 12 kts 327°
2026-05-07 18:32 60.32316 24.96650 158 ft 0 kts 329°
2026-05-07 18:33 60.32345 24.96615 158 ft 8 kts 330°
2026-05-07 18:33 60.32404 24.96546 158 ft 12 kts 329°
2026-05-07 18:34 60.32483 24.96458 157 ft 9 kts 331°
2026-05-07 18:34 60.32543 24.96391 159 ft 11 kts 331°
2026-05-07 18:34 60.32588 24.96340 159 ft 0 kts 330°
2026-05-07 18:35 60.32589 24.96340 159 ft 2 kts 330°
2026-05-07 18:35 60.32623 24.96298 160 ft 8 kts 319°
2026-05-07 18:35 60.32677 24.96229 161 ft 10 kts 330°
2026-05-07 18:35 60.32743 24.96153 163 ft 12 kts 330°
2026-05-07 18:36 60.32819 24.96064 164 ft 13 kts 329°
2026-05-07 18:36 60.32903 24.95963 166 ft 15 kts 329°
2026-05-07 18:36 60.32998 24.95852 167 ft 17 kts 333°
2026-05-07 18:36 60.33101 24.95719 168 ft 17 kts 313°
2026-05-07 18:37 60.33190 24.95543 171 ft 18 kts 314°
2026-05-07 18:37 60.33193 24.95379 173 ft 11 kts 239°
2026-05-07 18:37 60.33143 24.95252 175 ft 12 kts 229°
2026-05-07 18:37 60.33111 24.95102 177 ft 12 kts 265°
2026-05-07 18:38 60.33114 24.94934 180 ft 12 kts 273°
2026-05-07 18:38 60.33115 24.94865 181 ft 0 kts 272°
2026-05-07 18:38 60.33116 24.94820 181 ft 0 kts 271°
2026-05-07 18:38 60.33118 24.94710 182 ft 16 kts 272°
2026-05-07 18:39 60.33123 24.94474 185 ft 17 kts 273°
2026-05-07 18:39 60.33100 24.94357 189 ft 0 kts 230°
2026-05-07 18:39 60.33047 24.94240 182 ft 48 kts 228°
2026-05-07 18:40 60.32578 24.93224 174 ft 146 kts 226°
2026-05-07 18:40 60.31784 24.91402 649 ft 198 kts 229°
2026-05-07 18:40 60.30919 24.88720 1249 ft 261 kts 250°
2026-05-07 18:40 60.30822 24.85216 1841 ft 243 kts 283°
2026-05-07 18:41 60.31350 24.81894 2523 ft 248 kts 289°
2026-05-07 18:41 60.31829 24.78550 3220 ft 252 kts 285°
2026-05-07 18:41 60.32385 24.75273 3888 ft 249 kts 299°
2026-05-07 18:41 60.33262 24.72222 4575 ft 252 kts 301°
2026-05-07 18:42 60.34147 24.69142 5231 ft 254 kts 304°
2026-05-07 18:42 60.35346 24.66488 5904 ft 258 kts 321°
2026-05-07 18:42 60.36860 24.64541 6577 ft 260 kts 335°
2026-05-07 18:42 60.38595 24.63449 7213 ft 263 kts 349°
2026-05-07 18:43 60.40438 24.63319 7859 ft 269 kts
2026-05-07 18:43 60.42290 24.64079 8522 ft 273 kts 12°
2026-05-07 18:43 60.44157 24.64968 9194 ft 278 kts 11°
2026-05-07 18:43 60.46068 24.65828 9895 ft 284 kts 10°
2026-05-07 18:44 60.47968 24.66689 10532 ft 285 kts 10°
2026-05-07 18:44 60.50020 24.67622 11183 ft 310 kts
2026-05-07 18:44 60.52185 24.68618 11840 ft 325 kts
2026-05-07 18:44 60.54402 24.69644 12516 ft 332 kts
2026-05-07 18:45 60.56669 24.70686 13208 ft 335 kts
2026-05-07 18:45 60.58968 24.71740 13909 ft 341 kts
2026-05-07 18:45 60.61285 24.72806 14532 ft 342 kts
2026-05-07 18:45 60.63607 24.73872 15161 ft 348 kts
2026-05-07 18:46 60.65972 24.74969 15812 ft 350 kts
2026-05-07 18:46 60.68375 24.76083 16475 ft 356 kts
2026-05-07 18:46 60.70797 24.77207 17151 ft 357 kts
2026-05-07 18:46 60.73249 24.78338 17841 ft 364 kts
2026-05-07 18:47 60.75726 24.79489 18522 ft 366 kts
2026-05-07 18:47 60.78233 24.80659 19137 ft 374 kts
2026-05-07 18:47 60.80785 24.81847 19765 ft 378 kts
2026-05-07 18:47 60.83365 24.82799 20411 ft 376 kts 357°
2026-05-07 18:48 60.85990 24.83334 21062 ft 383 kts 357°
2026-05-07 18:48 60.88647 24.83977 21736 ft 386 kts 358°
2026-05-07 18:48 60.91342 24.84665 22423 ft 394 kts 357°
2026-05-07 18:48 60.94089 24.85310 23134 ft 399 kts 356°
2026-05-07 18:49 60.96856 24.85942 23833 ft 403 kts 356°
2026-05-07 18:49 60.99672 24.86603 24420 ft 410 kts 356°
2026-05-07 18:49 61.02507 24.87297 25015 ft 411 kts 356°
2026-05-07 18:49 61.05382 24.87982 25089 ft 415 kts 356°
2026-05-07 18:50 61.08223 24.88671 25102 ft 411 kts 356°
2026-05-07 18:50 61.11079 24.89349 25103 ft 412 kts 356°
2026-05-07 18:50 61.13919 24.90033 25100 ft 412 kts 356°
2026-05-07 18:50 61.16775 24.90716 25104 ft 413 kts 356°
2026-05-07 18:51 61.19613 24.91398 25105 ft 409 kts 356°
2026-05-07 18:51 61.22464 24.92080 25104 ft 419 kts 356°
2026-05-07 18:51 61.25391 24.92753 25103 ft 422 kts 356°
2026-05-07 18:51 61.28310 24.93427 25104 ft 425 kts 356°
2026-05-07 18:52 61.31216 24.94090 25104 ft 425 kts 356°
2026-05-07 18:52 61.34143 24.94764 25104 ft 423 kts 356°
2026-05-07 18:52 61.37078 24.95438 25105 ft 425 kts 357°
2026-05-07 18:52 61.40018 24.96111 25108 ft 424 kts 357°
2026-05-07 18:53 61.42949 24.96787 25109 ft 422 kts 357°
2026-05-07 18:53 61.45866 24.97460 25107 ft 423 kts 357°
2026-05-07 18:53 61.48804 24.98134 25104 ft 424 kts 357°
2026-05-07 18:53 61.51731 24.98808 25109 ft 422 kts 357°
2026-05-07 18:54 61.54644 24.99482 25106 ft 421 kts 357°
2026-05-07 18:54 61.57565 25.00155 25102 ft 423 kts 358°
2026-05-07 18:54 61.60495 25.00827 25098 ft 422 kts 358°
2026-05-07 18:54 61.63370 25.01492 25099 ft 421 kts 358°
2026-05-07 18:55 61.66290 25.02165 25092 ft 422 kts 358°
2026-05-07 18:55 61.69209 25.02839 25092 ft 421 kts 358°
2026-05-07 18:55 61.72112 25.03512 25090 ft 420 kts 358°
2026-05-07 18:55 61.75028 25.04186 25090 ft 423 kts 358°
2026-05-07 18:56 61.77949 25.04859 25092 ft 420 kts 358°
2026-05-07 18:56 61.80853 25.05532 25089 ft 421 kts 358°
2026-05-07 18:56 61.83778 25.06205 25090 ft 423 kts 358°
2026-05-07 18:56 61.86692 25.06877 25088 ft 419 kts 358°
2026-05-07 18:57 61.89590 25.07550 25094 ft 421 kts 358°
2026-05-07 18:57 61.92504 25.08221 25091 ft 420 kts 359°
2026-05-07 18:57 61.95401 25.08896 25094 ft 419 kts 359°
2026-05-07 18:57 61.98309 25.09568 25096 ft 421 kts 359°
2026-05-07 18:58 62.01214 25.10242 25099 ft 418 kts 359°
2026-05-07 18:58 62.04071 25.10908 25114 ft 419 kts 359°
2026-05-07 18:58 62.06984 25.11584 25113 ft 421 kts 359°
2026-05-07 18:58 62.09887 25.12260 25114 ft 417 kts 359°
2026-05-07 18:59 62.12788 25.12938 25115 ft 420 kts 359°
2026-05-07 18:59 62.15688 25.13613 25115 ft 418 kts 359°
2026-05-07 18:59 62.18576 25.14289 25109 ft 418 kts 359°
2026-05-07 18:59 62.21481 25.14966 25112 ft 420 kts 359°
2026-05-07 19:00 62.24375 25.15641 25106 ft 417 kts 359°
2026-05-07 19:00 62.27265 25.16240 25105 ft 416 kts 355°
2026-05-07 19:00 62.30113 25.15829 25097 ft 406 kts 344°
2026-05-07 19:00 62.32866 25.14685 25103 ft 401 kts 341°
2026-05-07 19:01 62.35613 25.13419 25099 ft 406 kts 342°
2026-05-07 19:01 62.38411 25.12541 25106 ft 407 kts 347°
2026-05-07 19:01 62.41214 25.12093 25100 ft 410 kts 349°
2026-05-07 19:01 62.44058 25.11557 25107 ft 408 kts 347°
2026-05-07 19:02 62.46856 25.10735 25105 ft 404 kts 345°
2026-05-07 19:02 62.49652 25.09899 25108 ft 408 kts 346°
2026-05-07 19:02 62.52477 25.09234 25111 ft 407 kts 348°
2026-05-07 19:02 62.55287 25.08607 25110 ft 407 kts 347°
2026-05-07 19:03 62.58103 25.07871 25115 ft 407 kts 346°
2026-05-07 19:03 62.60912 25.07106 25117 ft 407 kts 347°
2026-05-07 19:03 62.63733 25.06394 25121 ft 406 kts 347°
2026-05-07 19:03 62.66544 25.05733 25114 ft 407 kts 349°
2026-05-07 19:04 62.69366 25.05703 25116 ft 412 kts 356°
2026-05-07 19:04 62.72229 25.05868 25121 ft 411 kts 355°
2026-05-07 19:04 62.75091 25.05929 25123 ft 413 kts 354°
2026-05-07 19:04 62.77966 25.05998 25123 ft 413 kts 355°
2026-05-07 19:05 62.80832 25.06138 25119 ft 411 kts 355°
2026-05-07 19:05 62.83700 25.06278 25123 ft 414 kts 355°
2026-05-07 19:05 62.86576 25.06383 25121 ft 411 kts 355°
2026-05-07 19:05 62.89439 25.06485 25123 ft 413 kts 355°
2026-05-07 19:06 62.92310 25.06602 25117 ft 412 kts 355°
2026-05-07 19:06 62.98041 25.06839 25124 ft 413 kts 355°
2026-05-07 19:06 62.99939 25.06912 25121 ft 412 kts 355°
2026-05-07 19:07 63.02799 25.07028 25124 ft 411 kts 355°
2026-05-07 19:07 63.05659 25.07147 25118 ft 410 kts 355°
2026-05-07 19:07 63.08507 25.07262 25119 ft 409 kts 355°
2026-05-07 19:07 63.11360 25.07376 25122 ft 411 kts 356°
2026-05-07 19:08 63.14231 25.07492 25124 ft 412 kts 356°
2026-05-07 19:08 63.17082 25.07613 25120 ft 410 kts 356°
2026-05-07 19:08 63.19947 25.07729 25116 ft 412 kts 356°
2026-05-07 19:08 63.22769 25.07841 25119 ft 409 kts 356°
2026-05-07 19:09 63.25618 25.07961 25120 ft 410 kts 356°
2026-05-07 19:09 63.28480 25.08077 25119 ft 412 kts 356°
2026-05-07 19:09 63.31332 25.08197 25119 ft 409 kts 356°
2026-05-07 19:09 63.34174 25.08312 25123 ft 410 kts 356°
2026-05-07 19:10 63.37033 25.08423 25119 ft 411 kts 356°
2026-05-07 19:10 63.39872 25.08541 25121 ft 406 kts 356°
2026-05-07 19:10 63.42716 25.08659 25118 ft 410 kts 356°
2026-05-07 19:10 63.45557 25.08774 25119 ft 407 kts 356°
2026-05-07 19:11 63.48391 25.08891 25117 ft 408 kts 356°
2026-05-07 19:11 63.51237 25.09004 25119 ft 409 kts 356°
2026-05-07 19:11 63.54078 25.09122 25119 ft 406 kts 356°
2026-05-07 19:11 63.56904 25.09241 25123 ft 407 kts 356°
2026-05-07 19:12 63.59745 25.09354 25123 ft 408 kts 356°
2026-05-07 19:12 63.62572 25.09473 25118 ft 405 kts 357°
2026-05-07 19:12 63.65398 25.09591 25119 ft 409 kts 357°
2026-05-07 19:12 63.68237 25.09708 25117 ft 406 kts 357°
2026-05-07 19:13 63.71060 25.09824 25119 ft 407 kts 357°
2026-05-07 19:13 63.73906 25.09939 24873 ft 407 kts 357°
2026-05-07 19:13 63.76668 25.10066 24512 ft 389 kts 357°
2026-05-07 19:13 63.79348 25.10180 24150 ft 385 kts 357°
2026-05-07 19:14 63.82023 25.10279 23788 ft 382 kts 357°
2026-05-07 19:14 63.84630 25.10387 23379 ft 376 kts 358°
2026-05-07 19:14 63.87242 25.10503 22938 ft 375 kts 358°
2026-05-07 19:14 63.89852 25.10610 22499 ft 374 kts 358°
2026-05-07 19:15 63.92443 25.10717 22076 ft 370 kts 358°
2026-05-07 19:15 63.95001 25.10827 21656 ft 366 kts 358°
2026-05-07 19:15 63.97555 25.10934 21235 ft 365 kts 358°
2026-05-07 19:15 64.00094 25.11039 20823 ft 365 kts 358°
2026-05-07 19:16 64.02591 25.11144 20426 ft 362 kts 359°
2026-05-07 19:16 64.05097 25.11253 20027 ft 358 kts 359°
2026-05-07 19:16 64.07587 25.11358 19635 ft 356 kts 359°
2026-05-07 19:16 64.10057 25.11463 19248 ft 354 kts 359°
2026-05-07 19:17 64.12524 25.11567 18861 ft 353 kts 359°
2026-05-07 19:17 64.14982 25.11672 18481 ft 353 kts 359°
2026-05-07 19:17 64.17436 25.11777 18062 ft 351 kts 359°
2026-05-07 19:17 64.19864 25.11882 17627 ft 348 kts 359°
2026-05-07 19:18 64.22251 25.11984 17076 ft 346 kts 359°
2026-05-07 19:18 64.24641 25.12086 16514 ft 340 kts 359°
2026-05-07 19:18 64.27001 25.12189 15888 ft 338 kts 359°
2026-05-07 19:18 64.29300 25.12289 15228 ft 321 kts 359°
2026-05-07 19:19 64.31471 25.12387 14570 ft 305 kts 359°
2026-05-07 19:19 64.33582 25.12475 13931 ft 303 kts 359°
2026-05-07 19:19 64.35688 25.12562 13230 ft 302 kts 359°
2026-05-07 19:19 64.37784 25.12652 12534 ft 300 kts 359°
2026-05-07 19:20 64.39855 25.12744 11857 ft 296 kts 359°
2026-05-07 19:20 64.41900 25.12944 11185 ft 293 kts
2026-05-07 19:20 64.43873 25.14145 10533 ft 293 kts 20°
2026-05-07 19:20 64.45663 25.16363 10113 ft 286 kts 31°
2026-05-07 19:21 64.47292 25.18750 10107 ft 279 kts 30°
2026-05-07 19:21 64.48975 25.21096 10103 ft 283 kts 29°
2026-05-07 19:21 64.50652 25.23451 10105 ft 281 kts 30°
2026-05-07 19:21 64.52324 25.25844 10036 ft 285 kts 30°
2026-05-07 19:22 64.54026 25.28285 9524 ft 285 kts 30°
2026-05-07 19:22 64.55668 25.30637 8999 ft 270 kts 30°
2026-05-07 19:22 64.57243 25.32892 8478 ft 263 kts 30°
2026-05-07 19:22 64.58805 25.35127 7967 ft 263 kts 30°
2026-05-07 19:23 64.60362 25.37358 7462 ft 261 kts 30°
2026-05-07 19:23 64.61900 25.39596 6975 ft 260 kts 31°
2026-05-07 19:23 64.63428 25.41854 6478 ft 259 kts 31°
2026-05-07 19:23 64.64953 25.44116 5861 ft 260 kts 31°
2026-05-07 19:24 64.66464 25.46363 5195 ft 255 kts 31°
2026-05-07 19:24 64.67884 25.48481 4517 ft 240 kts 31°
2026-05-07 19:24 64.69331 25.50633 3849 ft 248 kts 31°
2026-05-07 19:24 64.70759 25.52750 3216 ft 245 kts 31°
2026-05-07 19:25 64.72193 25.54871 2563 ft 243 kts 31°
2026-05-07 19:25 64.73562 25.56891 2577 ft 225 kts 31°
2026-05-07 19:25 64.74927 25.58896 2416 ft 231 kts 31°
2026-05-07 19:25 64.76235 25.60823 2250 ft 216 kts 31°
2026-05-07 19:26 64.77473 25.62649 2251 ft 210 kts 31°
2026-05-07 19:26 64.78724 25.64498 2249 ft 214 kts 31°
2026-05-07 19:26 64.79986 25.66370 2252 ft 214 kts 31°
2026-05-07 19:26 64.81243 25.68238 2252 ft 214 kts 31°
2026-05-07 19:27 64.82517 25.70058 2251 ft 214 kts 27°
2026-05-07 19:27 64.83899 25.71266 2251 ft 212 kts
2026-05-07 19:27 64.85349 25.71018 2243 ft 209 kts 340°
2026-05-07 19:27 64.86502 25.69044 2247 ft 207 kts 307°